Location: Fort Wayne
(41.1310°N, 85.1290°W)
Time: 11:29:44
(UTC-04:00)

Cosmos 2219 Rocket - Visible Passes

Search period start: 01 May 2016 00:00
Search period end: 11 May 2016 00:00
Orbit: 828 x 847 km, 71.0° (Epoch: 30 April)

Date Brightness Start Highest point End Pass type
(mag) Time Alt. Az. Time Alt. Az. Time Alt. Az.
01 May 3.2 01:48:40 43° NE 01:48:40 43° NE 01:52:25 10° NNE visible
01 May 4.1 03:30:21 18° WNW 03:31:19 18° NW 03:35:10 10° N visible
02 May 3.2 01:32:25 41° NE 01:32:25 41° NE 01:36:04 10° NNE visible
02 May 4.0 03:14:06 19° WNW 03:14:56 19° NW 03:18:57 10° N visible
03 May 3.2 01:16:08 39° NE 01:16:08 39° NE 01:19:43 10° NNE visible
03 May 4.0 02:57:49 20° WNW 02:58:32 21° NW 03:02:44 10° N visible
04 May 3.2 00:59:49 38° NE 00:59:49 38° NE 01:03:21 10° NNE visible
04 May 3.9 02:41:30 22° WNW 02:42:10 22° NW 02:46:30 10° N visible
05 May 3.2 00:43:27 37° NE 00:43:27 37° NE 00:46:59 10° NNE visible
05 May 3.9 02:25:08 23° WNW 02:25:46 24° NW 02:30:16 10° N visible
06 May 3.2 00:27:02 36° ENE 00:27:02 36° ENE 00:30:38 10° NE visible
06 May 3.8 02:08:43 25° WNW 02:09:24 25° NW 02:14:02 10° N visible
07 May 3.1 00:10:34 36° ENE 00:10:34 36° ENE 00:14:16 10° NE visible
07 May 3.7 01:52:14 26° WNW 01:53:01 27° NW 01:57:47 10° N visible
07 May 3.1 23:54:02 36° ENE 23:54:02 36° ENE 23:57:53 10° NE visible
08 May 3.7 01:35:42 27° WNW 01:36:39 29° NW 01:41:31 10° N visible
08 May 3.0 23:37:25 36° ENE 23:37:25 36° ENE 23:41:30 10° NE visible
09 May 3.6 01:19:05 28° W 01:20:17 31° WNW 01:25:15 10° N visible
09 May 2.9 23:20:42 35° E 23:20:42 35° E 23:25:06 10° NE visible
10 May 3.6 01:02:21 28° W 01:03:55 33° WNW 01:08:59 10° N visible
10 May 2.9 23:03:52 34° E 23:03:52 34° E 23:08:42 10° NE visible
